Weather History for KBMG - September, 2013

Change the Weather History Date:

Wednesday, September 18, 2013

  Actual Average Record
Temperature  
Mean Temperature 67 °F 65 °F  
Max Temperature 80 °F 77 °F 87 °F (2010)
Min Temperature 54 °F 52 °F 43 °F (1999)
Degree Days  
Heating Degree Days 0 3  
Month to date heating degree days 22 21  
Since 1 July heating degree days 36 28  
Cooling Degree Days 2 2  
Month to date cooling degree days 116 76  
Year to date cooling degree days 957 893  
Growing Degree Days 16 (Base 50)    
Moisture  
Dew Point 61 °F    
Average Humidity 81    
Maximum Humidity 100    
Minimum Humidity 62    
Precipitation  
Precipitation 0.01 in 0.10 in 0.71 in (2011)
Month to date precipitation 0.44 1.96  
Year to date precipitation 30.76 35.15  
Sea Level Pressure  
Sea Level Pressure 30.10 in    
Wind  
Wind Speed 3 mph (SSW)    
Max Wind Speed 10 mph    
Max Gust Speed 15 mph    
Visibility 9 miles    
Events Rain    
T = Trace of Precipitation, MM = Missing Value Source: NWS Daily Summary

Daily Weather History Graph

Daily Weather History Graph

Search for Another Location

Airport or City:

Trip Planner

Search our weather history database for the weather conditions in past years. The results will help you decide how hot, cold, wet, or windy it might be!

Date:

Astronomy

Sep. 18, 2013 Rise Set
Actual Time 7:30 AM EDT 7:49 PM EDT
Civil Twilight 7:03 AM EDT 8:16 PM EDT
Nautical Twilight 6:32 AM EDT 8:47 PM EDT
Astronomical Twilight 6:00 AM EDT 9:19 PM EDT
Moon 7:12 PM EDT (9/18) 6:32 AM EDT (9/18)
Length of Visible Light 13h 12m
Length of Day
12h 18m
Waxing Gibbous, 99% of the Moon is Illuminated
Sep 18
Waxing Gibbous
Sep 19
Full
Sep 26
Last Quarter
Oct 4
New
Oct 11
First Quarter

Hourly Weather History & Observations

Time (EDT) Temp. Dew Point Humidity Pressure Visibility Wind Dir Wind Speed Gust Speed Precip Events Conditions
12:53 AM 55.0 °F 53.1 °F 93% 30.13 in 8.0 mi Calm Calm - N/A   Clear
1:53 AM 55.9 °F 55.0 °F 97% 30.13 in 9.0 mi Calm Calm - N/A   Clear
2:53 AM 57.0 °F 55.0 °F 93% 30.13 in 10.0 mi Calm Calm - N/A   Clear
3:53 AM 57.9 °F 55.9 °F 93% 30.11 in 10.0 mi Calm Calm - N/A   Scattered Clouds
4:53 AM 59.0 °F 55.9 °F 90% 30.11 in 9.0 mi Calm Calm - N/A   Scattered Clouds
5:53 AM 59.0 °F 57.0 °F 93% 30.11 in 10.0 mi Calm Calm - N/A   Scattered Clouds
6:53 AM 59.0 °F 57.0 °F 93% 30.12 in 10.0 mi Calm Calm - 0.00 in   Partly Cloudy
7:53 AM 57.9 °F 57.0 °F 97% 30.14 in 5.0 mi Calm Calm - 0.00 in   Partly Cloudy
8:53 AM 62.1 °F 57.0 °F 84% 30.14 in 10.0 mi Calm Calm - N/A   Overcast
9:53 AM 64.0 °F 57.9 °F 80% 30.15 in 10.0 mi Calm Calm - N/A   Overcast
10:53 AM 68.0 °F 60.1 °F 76% 30.15 in 10.0 mi South 3.5 mph - N/A   Overcast
11:53 AM 70.0 °F 61.0 °F 73% 30.14 in 10.0 mi SW 3.5 mph - 0.00 in Rain Light Rain
12:53 PM 68.0 °F 63.0 °F 84% 30.13 in 10.0 mi SW 4.6 mph - 0.01 in   Overcast
1:53 PM 73.9 °F 64.0 °F 71% 30.10 in 10.0 mi Calm Calm - N/A   Mostly Cloudy
2:53 PM 78.1 °F 64.0 °F 62% 30.08 in 10.0 mi South 6.9 mph - N/A   Overcast
3:03 PM 78.8 °F 64.4 °F 61% 30.09 in 10.0 mi Variable 5.8 mph - N/A   Scattered Clouds
3:53 PM 78.1 °F 64.9 °F 64% 30.06 in 10.0 mi Variable 4.6 mph - N/A   Scattered Clouds
4:08 PM 78.8 °F 64.4 °F 61% 30.07 in 10.0 mi South 8.1 mph - N/A   Mostly Cloudy
4:19 PM 78.8 °F 64.4 °F 61% 30.07 in 10.0 mi SW 8.1 mph - N/A   Mostly Cloudy
4:53 PM 77.0 °F 64.9 °F 66% 30.05 in 10.0 mi SSW 8.1 mph - N/A   Mostly Cloudy
5:53 PM 75.9 °F 64.9 °F 69% 30.05 in 10.0 mi SW 5.8 mph - N/A   Overcast
6:53 PM 75.0 °F 64.9 °F 71% 30.05 in 10.0 mi South 6.9 mph - N/A   Partly Cloudy
7:53 PM 70.0 °F 64.9 °F 84% 30.05 in 10.0 mi South 4.6 mph - N/A   Clear
8:53 PM 70.0 °F 66.0 °F 87% 30.06 in 10.0 mi SSE 3.5 mph - N/A   Clear
9:53 PM 66.9 °F 64.9 °F 93% 30.06 in 8.0 mi South 3.5 mph - N/A   Clear
10:53 PM 69.1 °F 66.0 °F 90% 30.06 in 6.0 mi South 4.6 mph - N/A   Clear
11:53 PM 69.1 °F 66.0 °F 90% 30.05 in 6.0 mi SSE 5.8 mph - N/A   Clear